Regional Weather Roundup
Issued by NWS State College, PA

Home | Current Version | Previous Version | Text Only | Print | Product List | Glossary On
Versions: 1 2 3 4 5 6 7 8 9 10 11 12 13 14 15 16 17 18 19 20 21 22 23 24 25 26 27 28 29 30 31 32 33 34 35 36 37 38 39 40 41 42 43 44 45 46 47 48 49 50
777
ASUS41 KCTP 172310
RWRCTP

REGIONAL WEATHER ROUNDUP
NATIONAL WEATHER SERVICE STATE COLLEGE PA
700 PM EDT THU AUG 17 2017

Note: "fair" indicates few or no clouds below 12,000 feet with no
significant weather and/or obstructions to visibility.

* = STATION THAT DOES NOT REPORT PRECIPITATION /E.G. RAIN...SNOW...ETC/
    THUNDER OR FOG.

PAZ002>004-007>009-013>016-020>023-029>032-180000-
WESTERN PENNSYLVANIA

CITY           SKY/WX    TMP DP  RH WIND       PRES   REMARKS
ERIE           RAIN      75  72  90 E5        29.79F FOG
MEADVILLE      LGT RAIN  76  74  93 VRB5      29.85F
FRANKLIN*      CLOUDY    77  70  78 S7        29.88F
NEW CASTLE     FAIR      82  73  74 VRB5      29.85
BEAVER COUNTY  MOSUNNY   79  70  73 S12G18    29.88S
BUTLER*        CLOUDY    81  72  74 S7        29.89F
PITTSBURGH INT CLOUDY    78  72  81 S8        29.88F
PITTSBURGH     LGT RAIN  75  70  84 S8        29.89F
INDIANA*       PTSUNNY   82  72  69 SW5       29.94S
LATROBE        PTSUNNY   84  70  61 S8        29.92S
WASHINGTON CO* MOSUNNY   73  70  88 CALM      29.90F
$$

PAZ004>006-010>012-017>019-024>028-033>037-041-042-045-046-049>053-180000-
CENTRAL PENNSYLVANIA

CITY           SKY/WX    TMP DP  RH WIND       PRES   REMARKS
BRADFORD       CLOUDY    78  68  71 SE7       29.93F
DUBOIS         PTSUNNY   80  65  59 S6        29.91F
CLEARFIELD     PTSUNNY   81  69  67 VRB7      29.93F
JOHNSTOWN      CLOUDY    79  69  71 S9        29.98S
ALTOONA        MOSUNNY   78  71  79 SE5       29.95S
STATE COLLEGE  SUNNY     81  70  69 CALM      29.93F
WILLIAMSPORT   PTSUNNY   83  70  64 S13       29.88F
SELINSGROVE    MOSUNNY   81  72  74 S5        29.91F
FT INDIANTOWN  CLOUDY    82  73  74 SE5       29.93R
CAPITAL CITY   CLOUDY    84  73  69 E8        29.92S
HARRISBURG     CLOUDY    83  75  77 SE10      29.91S
YORK           SUNNY     83  74  74 SE8       29.93S
$$

PAZ038>040-043-044-047-048-054-055-060>062-067>071-180000-
EASTERN PENNSYLVANIA

CITY           SKY/WX    TMP DP  RH WIND       PRES   REMARKS
SCRANTON       PTCLDY    80  66  62 VRB5      29.95F
MOUNT POCONO   CLEAR     73  66  78 S6        30.02F
ALLENTOWN      PTCLDY    84  64  50 S6        29.95S
QUAKERTOWN*    PTCLDY    84  68  58 SW3       29.97S
READING        CLOUDY    83  70  64 S9        29.93S
LANCASTER      CLOUDY    82  74  76 S13       29.94S
COATESVILLE    MOCLDY    79  73  83 VRB5      29.99S
POTTSTOWN      CLEAR     82  67  60 S5        29.97S
BLUE BELL      CLEAR     81  68  65 S6        29.97R
DOYLESTOWN     MOCLDY    80  70  71 VRB3      29.96R
WILLOW GROVE   NOT AVBL
NORTH PHILA    PTCLDY    84  68  58 SE8       29.97S
PHILADELPHIA   MOCLDY    84  66  54 S13       29.96R
$$




USA.gov is the U.S. government's official web portal to all federal, state and local government web resources and services.